Back to catalog

THORAD AGENA D DEB

AliveSSO
NORAD 4772·DEBRIS·🇺🇸 United States

Launched Apr 8, 1970 from Vandenberg Space Force Base

Loading…

Next Passes

TLE

Source: Space-Track
1 04772U 70025DS  26224.36060760  .00000255  00000-0  60441-3 0  9998
2 04772  99.7680  16.9086 0182360 155.2910 283.8340 13.27050677709624

Track THORAD AGENA D DEB in real time with AllMySat

Download on the App Store